COSMOS 1130

Satellite information

Favourite Embed

Satellite Type and Status

PAYLOADIN ORBIT

Key statistics

Satellite COSMOS 1130 at a glance.

Uptime

16722

Days in orbit

Revolutions

≈ 12.6

Per day

Orbit

LEO

Low Earth Orbit

Inclination

74.0

Latest

Satellite identification and parameters

Extended collection of information and parameters for COSMOS 1130.

Object identification

Identified? True

Debris? False

Object name: COSMOS 1130

International designator: 1979-084A

Object number (NORAD): 11538

Object ID (CCSDS): 11538

Country: COMMONWEALTH OF INDEPENDENT STATES (CIS)

Current information (Y/N): Y

RCS size: MEDIUM

Orbital parameters

Period: 114.626 minutes

Inclination: 74.0228 deg

SMA: 7816.54 km

Apoapsis: 1480.22 km

Periapsis: 1396.589 km

RAAN: 164.6844 deg

Eccentricy: 0.0053496

Argument of periapsis: 252.8914 deg

Mean anomaly: 229.88 deg

Mean motion: 12.56264159 rev/day

Mean motion (dot): 0.00000005 rev/day2

B* drag term: 0.00012653 1/REarth

Two-line elements (TLE)

Creation date: July 6, 2025, 6:05 p.m.

Reference frame: TEME

Reference center: EARTH

Epoch: July 6, 2025, 10:06 a.m. UTC

TLE line 0: 0 COSMOS 1130

TLE line 1: 1 11538U 79084A 25187.42138154 .00000005 00000-0 12653-3 0 9992

TLE line 2: 2 11538 74.0228 164.6844 0053496 252.8914 229.8800 12.56264159 99394

Live tracking on map

Real-time ground track for satellite COSMOS 1130.

In-orbit conjunctions

A list of the most updated potential collisions computed for object COSMOS 1130.

Target Orbit TCA Probability of collision Miss distance Type
DELTA 1 DEB SSO 2024-11-13 14:11:24 0.0002552777 221.0 (m) DEBRIS

Associated space launch

Biological research satellite carrying live organisms

COSMOS 1130 was lifted into orbit during the mission ‘Soyuz U | Bion 5’, on board a Soyuz U space rocket.

The launch took place on Sept. 25, 1979, 3:30 p.m. from 41/1.

For more information about the launch, click the button.

Launch to space Soyuz U | Bion 5
Soyuz U | Bion 5

Agency: N/A

Status: Launch Successful

Launch date: Sept. 25, 1979, 3:30 p.m. UTC

Rocket: Soyuz U

Launch pad: 41/1

Location: Plesetsk Cosmodrome, Russian Federation

...

Latest news about this satellite

There are no fresh news available about this satellite. Check back as we update our databases every day.


Newsletter sign-up

Weekly statistics, charts and insights to help you stay on top of the space industry.